Reflectivity
10 0 3 -3 -4 -17 11 6 -20 -18 4 13 6 8 -20 19 16 -9 -2 9 10 -4 -12 -17 21 22 3 -7 -10 -20 3 -13 27 9 1 1 7 12 3 -20 -20 -20 -20 -20 -7 -2 6
-14 5 -0 7 -10 6 -7 2 6 6 8 2 -8 -11 -20 -16 15 -15 -10 -11 -9 17 -3 -20 -2 23 19 -2 -20 -15 15 2 -9 19 0 6 -12 6 7 -1 -20 -20 -20 -20 -20 -11 -15
-20 5 -19 9 7 7 18 -14 17 3 -20 -20 21 20 21 12 -19 -0 5 -20 -6 25 -20 -20 -3 -20 8 -20 7 -20 -20 -20 -8 -19 12 6 -20 11 -17 -6 -13 -19 -20 -20 -20 -20 -20
-7 -17 -13 15 9 12 -19 -17 23 -20 -2 21 23 20 24 25 -20 -20 -20 -20 19 4 9 -11 1 -16 -1 -20 14 -20 -1 -20 23 -20 16 18 -7 -20 -19 -18 -18 -7 -20 -20 -20 -20 -20
12 -16 -20 8 2 18 10 1 6 12 9 18 23 14 20 24 -13 -20 -20 -20 -9 -5 -11 4 5 12 -6 -20 -20 17 25 6 12 -20 17 23 23 -8 -12 -20 -20 -20 -20 -20 -20 -20 -20
11 0 -20 -14 -20 9 12 13 0 13 13 12 22 7 23 4 21 -20 -20 -20 -20 -20 -18 -20 -1 -19 -20 -8 -14 27 -14 11 16 -12 28 28 26 20 10 -17 -20 -20 -20 -20 -20 -20 -20
-20 -20 -20 0 -20 11 4 10 0 14 -20 12 16 18 2 -17 24 -18 -20 -20 -20 -20 21 -20 1 13 25 24 -19 7 27 -12 9 23 23 27 29 13 -2 -15 -20 -20 -20 -20 -20 -20 -20
9 -20 -12 -20 1 -20 -0 14 14 14 13 12 12 -14 -20 -20 0 -20 -20 -20 -20 -20 -17 -20 -20 -20 14 21 18 -18 19 22 23 0 16 18 22 6 8 -16 -20 -17 -20 -20 -20 -20 -20
-7 -20 -7 -20 -20 9 -7 10 5 10 11 11 -2 -20 -20 9 -20 -20 -20 -9 -20 -20 -6 -20 -20 -11 39 15 1 17 24 41 12 8 24 6 5 -10 -6 5 -20 -20 -11 -20 -20 -20 -20
-13 -20 -20 -20 -20 -18 -20 -20 1 3 10 9 1 -20 -20 -20 -20 -20 2 -16 -20 -20 -20 -5 -4 23 21 -9 28 -7 40 34 15 14 -0 18 15 -20 -20 2 -19 -19 -20 -20 -20 -20 -20
-20 -20 -20 -20 -20 -20 -20 -20 -2 6 10 10 -20 -20 -20 -20 -20 -12 -15 -20 -8 6 21 6 11 19 11 21 18 21 36 39 37 23 27 29 11 18 7 -15 -15 6 -20 -20 -20 -20 -20
-20 -20 -16 -20 -20 -20 -20 -20 -20 -17 15 7 -12 -20 -20 -20 -20 -20 -20 -20 -20 -20 -8 15 17 16 -18 28 12 31 39 35 34 30 33 29 37 35 -17 -18 -12 -20 -20 -20 -20 -20 -20
-20 -20 -20 -20 -20 -20 -20 -20 -20 -20 1 12 5 -20 -20 -20 -20 -20 -20 -20 -14 -10 -5 24 23 1 -7 14 -11 -15 14 9 6 -19 8 25 34 35 27 30 25 -20 -17 1 -11 -8 -20
-20 -20 -20 -20 -20 -20 -20 -20 -20 -20 -20 7 -20 -20 -20 -20 -20 -20 -20 -20 -20 -10 19 -3 9 10 18 11 0 -7 -19 -20 -20 -20 -18 20 12 21 31 18 -9 -4 -1 -1 -20 -20 -20
-20 -20 -7 -20 -20 -20 -20 -20 -20 -20 -20 9 -20 -20 -20 -20 -20 9 -8 -20 -19 -14 15 3 -20 6 9 -20 -14 29 4 -20 -20 -20 3 6 11 -19 -20 -20 -20 4 20 -18 -20 -20 -20
-20 -20 5 -17 -20 -20 -20 -20 -20 -20 -20 -20 -20 -20 -20 -20 -20 -20 -20 1 7 -20 -19 -20 -20 -20 -20 -20 -20 -20 -19 -20 -20 -19 -20 -20 -20 -20 -20 -20 -20 -20 -20 -20 -20 -20 -20
-20 -20 9 -17 -20 -20 -20 -20 -20 -20 -20 -20 -20 -20 -20 -20 -20 -20 -20 -20 -20 -20 -20 -20 -20 -20 -20 -20 -20 -20 -20 -20 -20 -20 -20 -20 -20 -20 -20 -20 -20 -20 -20 -20 -20 -20 -20
-20 -20 -11 7 -20 -20 -20 -20 -20 -20 -20 -20 -20 -20 -20 -20 -16 -20 -20 -20 -20 -20 -20 -20 -20 -20 -20 -20 -20 -20 -20 -20 -20 -20 -20 -20 -20 -12 -6 -20 -20 -20 -20 -20 -20 -20 -20
-20 -20 -20 -4 -20 -20 -20 -20 -20 -20 -20 -20 -20 -20 -20 -20 -20 -20 -20 -20 -20 -20 -20 -20 -20 -20 -20 -20 -20 -20 -20 -20 -20 -20 -20 -20 -20 -20 -20 -20 -20 -20 -20 -20 -20 -20 -20
-20 -20 -20 -20 -3 -20 -20 -20 -20 -20 -20 -20 -20 -20 -20 -20 -20 -20 -20 -20 -20 -20 -20 -20 -20 -20 -20 -20 -20 -20 -20 -20 -20 -20 -20 -20 -20 -20 -20 -20 -20 -20 -20 -20 -20 -20 -20
-20 -20 -20 -20 -3 -18 -20 -20 -20 -20 -20 -20 -20 -18 -20 -20 -20 -20 -20 -20 -20 -20 -20 -20 -20 -20 -20 -20 -20 -20 -20 -20 -20 -20 -20 -20 -20 -20 -20 -20 -20 -20 -20 -20 -20 -20 -20
-20 -20 -20 -20 5 -20 -20 -20 -20 -20 -20 -20 -20 -20 -20 -20 -20 -20 -20 -20 -20 -20 -20 -20 -20 -20 -20 -20 -20 -20 -20 -20 -20 -20 -20 -20 -20 -20 -20 -20 -20 -20 -20 -20 -20 -20 -20
-20 -15 -20 -20 7 -20 -20 -20 -20 -20 -20 -20 -20 -20 2 -20 -20 -20 -20 -20 -20 -20 -20 -20 -20 -20 -20 -20 -20 -20 -20 -20 -20 -20 -20 -20 -20 -20 -20 -20 -20 -20 -20 -20 -20 -20 -20
-20 -18 7 -15 -20 6 -20 -20 -20 -20 -20 -20 -13 -7 -2 -20 -20 -20 -20 -20 -20 -20 -20 -20 -20 -14 -20 -20 -20 -20 -20 -20 -20 -20 -20 -20 -20 -20 -20 -20 -20 -20 -20 -20 -20 -20 -20
-20 -20 -18 -20 -20 -13 8 -20 -20 -20 -20 -20 -20 -20 -17 -19 -20 -20 -20 -20 -20 -20 -20 -20 -20 -20 -20 -20 -20 -20 4 -3 -20 -20 -20 -20 -20 -20 -20 -20 -20 -20 -20 -20 -20 -20 -20
-19 -20 -20 -20 -20 -15 -7 -17 -20 -20 -20 -20 -20 -20 -20 -20 -20 -20 -20 -20 -20 -20 -20 -20 -20 -20 -20 6 9 4 -19 -20 5 -20 -20 -20 -20 -18 -20 -20 -20 -20 -20 -20 -20 4 -20
1 -20 -20 -20 -20 -20 -20 8 14 -19 -20 -20 -20 -20 -20 -20 -20 -20 -8 -13 -15 -20 -20 -20 -20 -20 -20 11 8 3 -9 -20 -20 -20 -1 -10 -5 7 -4 -20 -20 -20 -20 -20 -3 -15 -20
-20 -4 -20 -4 2 -6 4 -20 19 18 -13 -20 -20 -20 -20 -20 -20 -20 -20 -20 -20 -20 -20 -20 -13 -20 -20 11 3 -18 -20 -20 -20 -20 -20 -18 -7 6 6 -4 -20 -20 -20 -20 -20 -14 -12
-20 11 4 9 2 -20 -18 -3 9 18 5 -16 -3 -20 -20 -20 -18 -20 -20 -20 -20 -19 -19 -18 -17 -20 -20 -17 -19 -20 -20 -20 -19 -3 -20 -8 -20 -20 -20 -20 -20 -20 -20 -19 -9 -15 -20
Wind_Speed
17 18 20 19 21 21 22 23 21 21 21 21 22 20 17 18 16 14 15 15 13 12 10 10 9 8 5 8 14 6 5 2 20 20 20 19 21 15 18 15 12 14 6 8 5 6 5
17 18 20 20 21 22 21 23 22 20 21 23 22 20 17 16 15 14 12 13 12 10 10 10 8 6 7 13 8 4 2 7 19 24 22 20 19 13 13 11 13 12 5 11 10 6 4
18 18 20 20 20 22 22 21 22 23 23 23 23 21 18 14 15 13 12 12 12 8 7 7 7 5 10 14 1 2 2 5 18 23 21 17 14 14 9 7 8 5 14 11 8 9 10
17 18 19 21 22 23 24 23 22 24 26 25 23 23 19 15 10 10 10 11 10 9 8 7 5 5 6 7 8 3 0 5 16 18 16 11 14 10 5 5 10 14 6 10 9 15 5
17 19 20 21 22 23 22 23 24 25 26 26 26 23 20 12 10 8 9 10 12 12 6 2 3 5 4 6 7 6 6 7 18 17 13 8 17 12 6 13 9 15 10 18 5 9 12
18 19 20 22 23 24 23 24 24 26 26 25 25 23 19 15 9 6 8 11 4 2 5 4 1 3 6 7 7 10 6 3 18 18 10 12 9 12 13 15 15 18 15 12 13 6 9
18 18 20 21 23 24 24 24 24 26 25 25 25 23 23 13 4 3 2 1 2 4 1 1 2 9 5 7 10 6 6 5 12 14 13 17 7 17 21 17 2 10 15 9 7 5 5
17 19 21 22 23 24 23 23 24 25 25 24 24 22 22 11 10 9 1 2 2 4 3 2 4 6 3 4 5 6 4 9 15 19 14 8 13 15 14 13 8 13 13 10 6 3 4
17 19 20 22 23 23 24 24 24 25 25 23 22 19 18 12 11 4 4 4 4 2 0 5 4 3 3 6 9 9 1 12 17 15 16 11 12 14 16 14 12 9 11 9 2 5 1
16 18 19 20 22 23 23 24 24 25 24 22 21 16 16 1 4 2 4 6 2 1 1 5 7 3 2 2 6 7 1 3 5 9 6 4 2 19 18 16 13 10 3 7 6 4 3
15 16 19 20 21 22 23 23 23 24 24 21 20 16 11 13 3 3 4 2 2 2 3 2 3 5 4 4 9 3 1 5 10 12 4 3 3 17 19 18 12 6 7 7 3 2 3
14 15 17 20 21 22 23 24 24 23 22 20 19 13 1 4 4 0 4 4 3 4 11 4 5 1 5 1 3 6 3 8 12 15 13 5 4 5 3 8 3 13 10 8 4 1 4
14 16 17 19 21 22 23 24 24 25 24 22 17 9 3 1 3 3 3 3 1 8 1 5 3 4 6 5 6 6 5 6 4 7 4 3 4 2 7 10 4 6 8 4 3 4 2
13 15 17 20 21 22 23 24 25 25 26 24 14 3 1 0 2 2 1 3 11 4 4 4 3 12 5 3 6 5 2 5 5 8 5 3 4 1 0 2 5 4 3 3 4 5 4
12 14 17 18 21 22 24 25 26 26 24 22 9 1 2 3 4 2 1 8 3 2 2 5 6 6 4 6 5 3 4 3 3 4 5 5 4 0 2 5 5 7 4 1 5 2 2
12 13 15 17 19 22 24 25 26 28 25 17 2 1 1 2 3 3 2 6 3 3 2 2 3 2 4 3 3 3 1 2 3 3 2 4 6 2 4 3 9 2 8 4 0 4 5
10 12 15 17 19 21 24 26 27 28 28 8 1 2 3 3 4 2 5 3 2 0 2 2 3 3 5 4 2 2 3 2 2 5 3 5 3 2 2 4 7 5 4 3 2 2 3
9 11 14 16 18 20 23 25 27 28 28 5 3 0 3 4 2 2 2 1 2 2 1 2 3 5 7 3 3 2 3 2 3 4 5 2 5 5 1 2 3 1 2 5 3 5 1
9 11 13 15 16 19 22 24 27 27 23 5 4 3 1 3 2 2 1 1 2 3 3 2 2 1 2 4 3 3 2 1 3 2 5 6 3 6 5 5 2 4 5 3 5 2 5
8 10 11 14 16 19 20 23 25 27 24 2 3 2 3 4 2 2 1 1 2 1 1 1 3 2 4 2 2 4 4 2 1 1 7 3 3 2 2 3 4 4 9 10 5 4 5
7 9 12 14 13 17 19 21 24 27 24 3 4 3 2 2 3 2 1 0 1 1 1 1 3 3 3 3 3 3 3 4 2 4 2 1 3 1 2 4 2 2 6 13 10 8 6
5 8 11 12 13 14 17 19 22 26 22 3 3 3 4 2 4 3 1 2 1 1 2 1 3 4 3 3 2 6 6 4 3 4 2 2 3 2 2 1 5 5 10 11 16 17 16
4 7 9 11 13 11 15 17 18 21 15 4 3 1 2 3 3 3 2 2 2 2 1 2 4 4 3 2 0 1 2 3 3 7 5 4 6 2 1 1 3 9 17 18 11 10 15
3 5 8 11 11 10 10 14 15 15 11 3 3 2 2 2 4 2 2 2 2 1 1 1 1 3 4 8 9 8 8 7 5 4 3 7 5 1 0 3 5 3 2 3 19 9 16
4 5 7 9 11 10 9 10 12 12 10 3 2 3 2 3 4 4 4 4 5 2 3 2 1 2 7 2 3 5 3 3 3 3 2 2 4 3 2 4 8 3 5 6 9 7 16
5 6 7 8 10 10 9 10 9 11 6 2 1 2 2 3 0 3 4 4 3 2 3 1 2 3 2 1 2 4 5 4 5 4 4 4 2 3 2 3 5 4 3 6 5 4 5
8 7 8 8 10 9 10 10 9 10 5 1 1 2 2 3 3 3 3 3 2 2 2 1 4 3 1 3 3 3 3 1 6 7 6 5 4 9 7 5 7 7 3 5 4 4 1
10 10 8 10 11 10 10 10 7 10 7 2 2 1 1 3 8 4 2 4 4 3 3 3 4 3 2 6 3 4 4 5 4 5 6 10 7 4 6 5 9 5 5 4 4 2 2
11 11 6 8 9 9 11 12 11 10 10 4 2 1 1 3 6 5 11 13 12 12 4 4 5 3 4 4 3 3 4 4 5 4 4 7 7 5 8 5 2 3 3 4 3 4 2
Wind_Direction
353 349 343 347 346 338 339 336 337 335 330 327 322 326 322 315 306 308 306 303 301 292 281 274 269 251 234 218 233 141 71 200 206 193 199 191 190 194 196 204 184 216 183 198 202 174 162
350 349 345 345 342 346 341 333 336 339 331 330 327 328 323 318 308 302 293 299 300 288 281 271 262 260 225 239 209 217 298 323 196 193 195 194 194 192 200 193 201 196 183 205 201 198 179
347 345 342 344 344 343 339 334 342 340 333 324 327 320 314 308 299 308 299 300 302 302 289 280 254 217 233 235 90 170 278 325 185 184 190 195 187 186 157 161 203 145 207 229 207 217 232
348 348 342 347 347 344 343 337 343 339 331 331 331 327 317 300 302 304 309 305 297 301 299 272 223 205 249 212 216 35 35 259 181 182 195 186 186 165 183 142 165 196 198 197 212 209 202
350 345 346 344 347 348 342 340 350 337 333 336 335 334 329 303 277 290 302 305 306 308 289 252 199 224 236 140 204 173 194 211 171 185 201 154 182 180 143 166 155 188 201 213 192 207 208
346 347 345 344 347 350 345 349 350 335 337 339 343 338 333 315 257 259 302 324 4 57 141 150 215 215 236 196 155 133 182 188 165 165 182 194 181 180 174 185 196 188 190 202 210 166 215
348 345 344 347 349 351 349 352 343 341 338 346 349 348 343 331 215 194 337 281 195 110 105 353 101 267 31 337 134 141 152 125 142 181 171 195 176 190 185 198 279 168 190 185 204 133 221
348 344 344 350 352 353 349 350 345 342 342 351 356 3 2 51 123 93 73 44 31 4 141 14 289 250 344 258 162 148 142 170 182 177 170 167 200 195 173 183 168 177 179 188 121 145 241
346 343 347 349 351 352 352 349 351 342 347 353 356 15 23 79 87 62 58 33 343 273 131 47 8 311 202 278 110 160 261 143 173 172 185 181 186 168 178 177 173 180 188 165 137 148 128
346 343 346 349 349 355 350 350 348 343 347 353 348 10 21 232 68 349 47 343 125 10 81 5 351 356 274 249 77 80 358 149 37 120 89 155 260 180 183 186 181 169 130 140 135 197 232
347 343 348 347 351 354 351 350 347 345 346 354 346 4 59 39 72 38 339 326 313 227 131 316 307 332 262 65 135 74 302 202 156 125 128 80 206 179 182 183 192 103 142 116 106 107 308
345 342 346 346 351 353 350 348 346 346 346 349 342 347 307 80 79 112 304 309 258 244 40 30 354 207 101 221 118 118 148 112 134 125 104 87 41 20 80 47 163 132 109 74 60 26 235
341 339 349 348 351 353 350 348 347 343 346 343 340 331 3 208 110 177 300 305 271 39 198 4 42 97 82 55 64 51 10 53 118 121 95 63 39 98 109 89 29 98 163 138 178 199 259
341 340 349 350 352 352 350 348 347 344 343 341 343 301 162 262 147 260 292 257 57 321 24 278 97 108 78 41 49 40 10 94 51 89 98 88 123 55 18 103 134 141 176 228 185 188 135
340 345 347 352 352 352 351 349 346 345 342 341 335 148 223 181 209 241 245 50 60 269 245 134 130 88 71 68 112 101 40 41 62 34 96 138 82 212 73 128 163 152 194 11 96 72 259
338 345 348 353 354 351 351 350 348 346 343 347 339 307 189 161 211 204 33 86 100 212 182 313 81 298 121 102 119 107 57 333 86 38 12 127 110 54 139 138 55 280 133 152 206 185 232
343 343 350 351 355 352 350 351 349 350 344 347 318 231 125 323 201 56 69 37 50 307 302 344 108 112 117 131 97 90 119 127 212 124 166 136 101 146 193 222 166 151 188 77 58 299 273
348 347 348 352 353 354 351 352 350 353 347 25 320 277 128 175 40 33 54 21 331 336 347 98 102 100 158 145 122 129 142 33 139 157 143 103 105 144 129 62 316 273 203 202 232 175 86
348 350 350 349 354 354 354 352 351 353 356 322 344 300 131 260 92 83 119 38 327 12 31 38 87 25 157 152 142 135 127 22 169 194 161 168 134 132 163 189 174 213 187 159 89 41 202
342 350 349 342 352 352 357 353 352 352 353 319 323 309 4 58 24 71 46 79 155 173 77 35 109 126 136 115 42 141 129 75 213 85 71 99 118 277 188 83 111 185 192 190 171 191 180
338 348 348 342 352 355 355 356 354 354 352 294 8 40 8 349 71 76 174 355 318 195 57 40 134 165 154 137 127 142 142 132 98 122 74 47 108 74 72 88 140 214 201 196 206 211 216
344 351 345 344 347 357 359 358 358 358 350 60 18 354 346 299 293 236 123 98 37 123 283 158 178 141 164 157 207 186 165 197 176 166 120 37 114 129 152 166 227 250 233 219 223 234 247
343 349 344 344 349 355 360 360 2 8 5 27 11 344 304 298 297 243 124 109 78 321 139 305 155 142 139 98 180 347 158 188 183 176 144 135 141 158 238 34 279 261 230 212 209 210 222
312 337 345 341 337 345 355 0 0 12 28 347 1 306 311 291 293 338 338 328 248 193 224 338 265 207 109 121 116 102 97 101 124 104 139 145 123 99 172 214 234 68 125 216 216 222 219
305 317 333 336 338 338 341 347 358 1 22 18 355 339 353 292 310 294 330 293 292 257 192 163 81 27 159 189 127 139 145 164 96 76 156 196 143 131 255 246 305 226 177 158 180 223 220
275 299 305 315 326 324 333 321 342 357 27 35 351 302 327 310 157 332 301 291 300 225 178 139 99 129 140 223 173 207 180 170 172 139 51 125 187 214 152 252 250 59 142 189 226 165 144
257 270 285 303 315 318 320 330 328 334 11 36 303 359 291 280 276 262 255 292 294 272 270 157 161 168 292 163 194 201 207 217 176 183 168 168 181 215 220 250 275 248 169 166 228 115 19
245 264 278 309 318 326 326 320 333 315 305 191 310 233 333 288 279 262 264 254 304 266 248 79 166 174 149 202 201 186 229 196 193 183 178 184 187 184 195 225 253 159 136 220 86 115 292
236 260 256 308 320 320 322 318 331 326 306 160 260 165 171 231 280 247 254 257 249 258 295 290 322 217 178 186 204 155 180 183 196 205 190 206 210 183 212 223 355 215 314 123 34 327 293